Погода Мирный

Погода Мирный : погода сейчас, прогноз погоды и архив. Всё, что Вы хотите узнать о погоде Мирный!

Хотите узнать прогноз погоды Мирный? Тогда Вам сюда: Погода Мирный

Поиск расширенной информации на нашем сайте:

Другие новости

Новости СМИ2

Главная страница сайта

Новости сайта

02.10.2013

Напоминаем, что на нашем новом сайте вы можете получить высокодетализированные прогнозы погоды по пунктам России, СНГ и мира (включающие важные для авиации метеовеличины, такие как направление и скорость ветра, видимость, явления погоды, количество и форма облачности, нижняя и верхняя граница облачности), а также ознакомиться с разнообразными материалами по авиационной метеорологии и подборкой полезных ссылок на эту тему.

Сайт Метеоцентр.Азия посвящён разработке технологий оптимизации авиаметеорологического обслуживания, включая проектирование и перспективное создание нескольких автоматизированных авиаметеорологических систем:
- система выпуска высокодетальных прогностических карт явлений погоды для нижнего воздушного пространства по России и ближнему зарубежью;
- система верификации прогнозов TAF (выпускаемых синоптиками официальных АМСГ РФ и ближнего зарубежья) и AUTOTAF (выпускаемых сайтом Метеоцентр.Азия) - выявление ошибок, онлайн-сопоставление с фактической погодой METAR, автоматическое внесение коррективов в прогнозы при резком отклонении фактической погоды от прогноза, подсчёт оправдываемости прогнозов по элементам и в целом;
- система обработки, анализа и отображения авиаметеорологической информации для применения провайдерами метеорологической информации.

Рекомендуем: Поддержка сайта создание поддержка сайта.

Погода Мирный - сегодня

Время (UTC), дата Ветер
(°,м/с) 
Видим.   Явления Облачность Т
(°С)
Тd
(°С)
f(%) Тe
(°С)
Pmin
(гПа)
dP
(гПа)
Po
(мм)
O2
(г/м3)
Тmin Tmax R s Состояние
почвы
18 20.02.17 280 (З) 20000 м    10/0 верхняя 
[Ci fib]
-25 -26.8 85 -28  1021.4  0.3  729  325           
21 20.02.17 тихо ()   20000 м    10/0 верхняя 
[Ci fib]
-28.2 -30.7 79 -28  1022.6  0.6  730  330           
00 21.02.17 тихо ()   0500 м  туман  10/0 верхняя 
[Ci fib]
-29.8 -32.8 75 -30  1023.5  0.4  730  332  -31.7      30  равномерный
сухой снег
100% 
03 21.02.17 тихо ()   2000 м  в посл. час туман  3/0 верхняя 
[Ci fib]
-26 -28.4 80 -26  1023.3  0.6  731  327  -32         
06 21.02.17 тихо ()   20000 м  {туман}  3/0 верхняя 
[Ci fib]
-17.8 -19.7 85 -18  1021.5  -0.2  730  316           
09 21.02.17 тихо ()   20000 м    6/0 верхняя 
[Ci fib]
-19.1 -21.2 83 -19  1021.7  730  318           
12 21.02.17 200 (Ю) 20000 м    8/0 верхняя 
[Ci fib]
-21 -22.9 85 -21  1021.8  -0.2  730  320    -15.9       
15 21.02.17 220 (ЮЗ) 20000 м  слаб. снег  10/0 средняя, верхняя 
[Ac trans|Cs]
-21.4 -23.2 85 -24  1021  -0.6  730  321           
18 21.02.17 210 (ЮЗ) 20000 м  слаб. снег  10/5 1140 м верхняя 
[Sc|Cs]
-23.4 -25.9 80 -24  1021.1  -0.5  729  323           
21 21.02.17 260 (З) 20000 м  слаб. снег  10/6 900 м верхняя 
[Sc|Cs]
-20.8 -22.7 85 -24  1020.2  -0.3  729  320           
00 22.02.17 270 (З) 10 км  слаб. снег  10/8 750 м верхняя 
[Sc|Cs]
-19.5 -21.4 85 -22  1019.5  -0.5  729  318  -24.2    0.3  30  равномерный
сухой снег
100% 
03 22.02.17 260 (З) 20000 м  в посл. час снег  10/6 840 м верхняя 
[Sc|Cs]
-16.4 -18.3 85 -20  1018.3  -0.6  728  314           
06 22.02.17 270 (З) 10 км  слаб. снег  10/5 600 м верхняя 
[Sc|Cs]
-12.4 -15.9 75 -16  1017.1  -0.5  728  309           
09 22.02.17 260 (З) 20000 м  слаб. снег  10/5 600 м верхняя 
[Sc|Cs]
-14.7 -17.4 80 -17  1017.2  -0.3  728  311           
12 22.02.17 250 (З) 10 км  слаб. снег  10/0 верхняя 
[Cs]
-17.5 -18.7 90 -18  1017.4  -0.2  728  315    -12.4  0.0     
15 22.02.17 тихо ()   20000 м  {снег}  10/0 верхняя 
[Cs]
-18.1 -19.3 90 -18  1016.7  -0.8  727  315           
18 22.02.17 тихо ()   20000 м  {снег}  10/0 верхняя 
[Ci fib]
-20.3 -22.2 85 -20  1016.5  -0.6  727  318           
21 22.02.17 тихо ()   20000 м    10/3 200 м верхняя 
[St|Ci fib]
-21.9 -23.8 84 -22  1016.8  -0.1  727  320           
00 23.02.17 тихо ()   1000 м  туман  10/10 120 м 
[St]
-26.7 -29.2 79 -27  1017.6  -0.2  726  326  -26.7    0.0  30  равномерный
сухой снег
100% 
03 23.02.17 тихо ()   2000 м  дымка{туман}  8/8 60 м 
[St]
-20.8 -22.7 85 -21  1016.6  0.2  727  318  -26.9         
06 23.02.17 060 (СВ) 20000 м  {снег, туман}  3/0 верхняя 
[Ci fib]
-17.5 -20.1 80 -20  1015.8  -0.1  726  314           
09 23.02.17 100 (В) 20000 м    3/0 верхняя 
[Cs]
-15.6 -19 75 -16  1016.3  0.7  727  312           
12 23.02.17 070 (В) 20000 м    4/0 верхняя 
[Ci fib]
-19.8 -21.7 85 -23  1018.1  1.1  728  318    -15  0.0     
15 23.02.17 070 (В) 20000 м    4/0 верхняя 
[Ci fib]
-21 -22.9 85 -21  1018.9  0.6  728  319           
18 23.02.17 080 (В) 20000 м    10/0 верхняя 
[Ci fib]
-22.3 -24.9 79 -23  1019.5  0.2  728  321           
Время (UTC), дата Ветер
(°,м/с) 
Видим.   Явления Облачность Т
(°С)
Тd
(°С)
f(%) Тe
(°С)
Pmin
(гПа)
dP
(гПа)
Po
(мм)
O2
(г/м3)
Тmin Tmax R s Состояние
почвы

Для получения пояснительной информации подведите курсор к названию столбца.

ПОГОДА Мирный - архив

Всё, что Вы хотите узнать о погоде Мирный - удобно и подробно!

Выберите нужную дату (начиная с 1 января 2015* года) и нажмите кнопку "Найти".
Будут отображены архивные сводки погоды по пункту Мирный, начиная с указанной даты.


Отображать данные в формате CSV (для использования в таблицах Excel)


Внимание! Наш архив погоды предназначен исключительно для личного некоммерческого использования в познавательных целях. Если Вам необходимы официальные справки о состоянии погоды (для производственных, юридических, коммерческих и т.п. целей), обращайтесь в органы Росгидромета.

*Примечание: данная дата относится к архиву по метеостанциям СССР (Россия, СНГ, Балтия).
Архив по метеостанциям Зарубежной Европы и Азии (кроме Китая) хранится 10 дней, по другим регионам земного шара (Китай, Африка, Америка, Австралия, Океания) - 1 день.

Мирный - район местоположения метеостанции


Название, широта, долгота, высота метеостанции:
Мирный 62.5°ш. 114.0°д. 352 м над ур. моря [Российская Федерация]

Дополнительная информация

В oтличие oт бoльшинства пoгoдных сайтoв мы публикуем пoдрoбную метеoинфoрмацию в детальнoм прoфессиoнальнoм фoрмате.

Характеристики температуры и влажнoсти вoздуха измеряются на высoте 2 м в тени вдали oт зданий и деревьев.
Скoрoсть ветра измеряется на высoте 10 м (на урoвне рoста челoвека скoрoсть ветра ниже в 1.5-2 раза). Если метеoстанция нахoдится в гoрoде или в лесу, тo скoрoсть ветра занижена на 2-4 м/с пo сравнению с oткрытым местoм. Скoрoсть ветра над акватoриями крупных рек и oзёр, а также на вершинах хoлмoв на 2-5 м/с выше, чем в oбычных услoвиях.
Атмoсфернoе давление в разных тoчках местнoсти мoжет значительнo oтличаться oт давления на метеoстанции, в зависимoсти oт услoвий рельефа (при пoдъёме на 10 м давление пoнижается примернo на 1 мм рт.ст.).